CZ-6A DEB, 56238

Orbit data source: Space-Track

CZ-6A DEB, 56238 is space debris in SSO originally from a launch on Fri, 11 Nov 2022 UTC launched from the Taiyaun Space Center, China (TSC). Debris objects in space refer to the collection of defunct objects orbiting the Earth. Examples of debris include non-operational satellites, rocket bodies, and fragments generated from explosions, collisions, or faulty payload assembly.

Loading next visibility...
Identifier
56238, 2022-151ABE
Orbit
SSO
Country
Flag of CNCN / PRC
Related business
Manufacturer
SAST
Mission
Spacecraft
Bus & Motor
Unknown
Mass
Unknown
Launch date (UTC)
2022-11-11 (3 years ago)
Launch vehicle
Unknown
Launch site
Taiyaun Space Center, China (TSC)
Object type
Payload
Rocket body
Debris
Shape & HBR
Unknown shape, 0.1 m
Radar Cross Section
Small (<0.1 m²)

Expand to show TLE details & history
Last TLE update: 3 days ago

TLE from 3 days ago
0 CZ-6A DEB
1 56238U 22151ABE 25348.23297164  .00000396  00000-0  42160-3 0  9995
2 56238  98.9094 274.1197 0245552 344.3347  15.0298 13.67340838136623
Epoch: 2025-12-14T05:35Z
TLE epoch observation values (Epoch: 2025-12-14T05:35:28.749Z)
Latitude
0.00004°
Longitude
107.10107°
Altitude
837.059 km
Speed
7.522 km/s
True Right ascension
18h 16m 28s
True Declination
0° 00' 00"
Sunlit
Object was in daylight at epoch
Visualization orbit readout
Latitude
Unknown
Longitude
Unknown
Altitude
Unknown
Speed
Unknown
Apparent Right ascension
Unknown
Apparent Declination
Unknown
Sunlit
N/A
Visualization observer readout
Local Sidereal Time
23:47:38
Azimuth
Unknown
Elevation
Unknown
Doppler factor
Unknown
Orbital elements
Apogee altitude
1,187.698 km
Perigee altitude
825.042 km
Semi-major axis
7,384.507 km
Eccentricity
0.02456
Inclination
98.9094°
RAAN
274.1197°
Arg. of periapsis
344.3347°
True anomaly
15.78172°
Mean anomaly
15.0298°
Eccentric anomaly
15.4035°
Mean motion
3.42027 °/min
Orbital period
105.25 mins
BSTAR
0.0004216
Loading maneuver chart data...
Computing Atmospheric mass density...
Loading historical data...
Loading historical data...
Loading historical data...
Loading historical data...
Loading historical data...
Loading historical data...
Loading historical data...

Documentation

Showing up to 5 results
|